Lapse_Rate
1.9 1.2 -0.1 2.0 6.4 6.5 6.5 6.5 6.5 6.5 6.5 6.0 5.7 5.7 6.3 6.2 6.5 6.5 6.9 6.1 5.9 5.8 4.7 4.7 5.5 5.7 6.0 6.0 6.0 5.9 5.8 5.6 5.5 5.5 5.5 5.4 5.3 5.3 5.3 5.3 5.5 5.8 6.0 5.9 5.9 5.8 5.9 5.9 5.9
1.2 1.8 0.7 1.9 6.5 6.5 6.5 6.5 6.5 6.5 5.9 5.1 5.6 5.8 6.0 6.5 6.9 6.8 6.3 6.3 5.8 4.9 4.5 4.6 5.4 5.7 6.1 6.1 6.2 6.1 5.9 5.5 5.1 5.1 5.3 5.4 5.4 5.6 5.6 5.4 5.4 5.5 5.4 5.5 5.6 5.6 5.7 6.0 5.9
1.4 1.6 2.3 6.5 6.5 6.5 6.5 6.5 6.5 5.9 4.8 5.9 5.6 5.1 5.8 6.3 6.6 6.5 5.1 4.8 4.2 3.9 4.6 4.9 5.4 5.8 6.2 6.1 6.0 5.5 5.2 5.2 5.2 5.3 5.5 5.6 5.5 5.5 5.5 5.1 5.1 5.3 5.3 5.1 5.1 5.4 5.7 5.8 5.9
0.8 1.1 2.5 6.5 6.5 6.5 6.5 6.5 6.0 6.0 5.6 4.5 4.3 6.2 5.9 6.3 6.7 5.4 4.9 4.3 3.1 3.3 4.7 5.2 5.8 6.4 6.5 5.8 5.4 5.1 4.9 4.9 5.1 5.5 5.9 5.9 6.1 5.8 5.5 5.4 5.1 4.8 4.9 5.2 5.2 5.3 5.8 6.0 6.0
-0.4 1.6 6.5 6.5 6.5 6.5 6.5 5.1 4.6 6.5 5.9 5.6 5.1 6.4 5.8 6.6 5.2 4.4 4.3 4.4 3.5 3.4 4.9 5.6 6.1 6.3 6.1 5.5 5.3 5.3 5.2 5.0 4.9 4.7 4.7 4.9 4.8 5.2 4.6 4.5 4.8 4.7 4.6 4.6 4.8 5.1 5.3 5.7 6.2
2.5 2.9 6.5 6.5 6.5 6.5 6.3 4.8 5.3 5.9 5.1 4.8 4.3 5.0 5.0 6.4 5.7 4.7 4.4 3.8 4.6 4.3 5.1 5.3 5.9 6.1 5.8 5.7 5.7 5.7 5.2 4.9 4.6 4.6 4.4 4.2 4.0 4.4 4.6 4.1 4.1 4.2 4.4 4.4 4.8 4.7 4.9 5.0 5.6
5.0 6.5 6.5 6.5 6.5 6.5 6.5 4.5 5.6 5.2 5.1 5.6 3.5 6.3 5.1 5.9 4.8 4.1 3.6 3.5 4.9 5.0 4.7 4.8 5.5 5.8 5.7 5.7 5.3 5.0 4.9 4.6 4.3 4.0 3.4 3.1 3.6 3.5 3.6 3.7 4.1 4.0 4.2 4.1 4.9 5.3 4.9 5.0 5.1
2.0 5.7 6.5 6.5 6.5 6.5 5.8 5.1 4.3 4.5 6.4 4.9 3.7 6.0 5.6 4.8 4.6 3.4 3.9 3.5 3.5 4.3 4.4 4.1 4.6 4.6 4.5 4.1 4.7 4.6 4.2 3.7 3.6 3.0 2.6 2.1 1.6 2.2 2.5 2.8 3.0 3.4 3.6 3.5 4.0 3.8 5.3 5.1 5.1
3.6 6.5 6.5 6.5 6.5 6.5 4.9 6.3 5.7 4.2 4.4 4.2 3.8 2.2 2.7 4.5 3.4 3.1 3.6 4.1 3.7 4.0 2.8 3.2 3.4 3.8 3.8 3.2 2.6 2.6 2.9 2.7 1.9 1.2 1.6 0.2 0.1 0.6 0.6 1.8 2.4 2.9 2.6 3.1 3.7 4.2 3.9 3.6 2.9
4.4 6.5 6.5 6.4 6.4 6.5 5.3 5.2 4.7 5.3 5.1 5.4 4.5 3.1 2.7 3.6 3.3 3.3 3.1 3.2 4.0 3.5 2.8 1.5 2.0 2.0 2.5 2.3 1.7 1.7 1.4 1.2 0.8 0.7 0.4 0.1 -0.2 0.0 0.1 0.4 1.6 2.5 2.8 3.2 3.4 3.6 3.2 2.5 1.9
5.4 6.5 6.4 6.2 6.1 5.3 5.3 5.5 4.6 4.3 6.5 3.9 4.0 3.5 3.8 3.6 3.0 3.0 2.7 2.4 2.2 3.0 3.1 2.3 1.5 2.1 1.5 0.7 0.7 0.7 0.8 0.7 0.1 0.1 -0.1 -0.7 -0.9 -0.6 -0.5 -0.5 -0.3 0.2 1.0 0.7 1.1 1.2 1.9 2.4 2.0
6.4 5.6 5.9 5.8 5.6 5.0 5.8 4.8 5.4 3.3 3.3 2.3 2.2 2.4 2.8 3.3 2.8 2.6 1.8 1.6 1.4 2.1 1.7 1.9 1.7 1.2 0.6 0.3 -0.3 -0.0 -0.2 -0.1 -0.8 -0.5 -0.3 -1.0 -1.9 -1.6 -1.6 -1.4 -0.9 -0.3 0.1 0.2 0.3 -0.2 0.4 1.0 1.9
6.5 6.2 6.0 5.4 5.5 5.4 5.5 4.9 5.4 4.2 3.3 1.9 2.0 2.8 2.6 2.7 2.4 2.0 2.0 1.0 0.4 1.2 1.0 0.8 -0.2 -0.8 -0.6 -1.0 -0.9 -0.6 -0.9 -0.6 -0.7 -0.7 -0.3 -0.4 -1.4 -2.0 -1.1 -1.1 -0.7 -0.1 0.6 -0.1 -0.6 -0.3 -0.2 -0.2 0.4
5.6 5.3 5.6 5.1 5.6 5.5 6.1 5.7 5.5 3.8 2.6 1.2 2.7 2.6 2.1 2.5 2.3 1.6 1.3 1.6 0.1 0.3 0.2 -0.3 -0.5 -1.1 -0.4 -1.7 -1.3 -1.5 -0.5 -0.4 -0.6 -0.7 -0.1 0.2 -0.3 -0.7 -1.2 -1.1 -0.8 0.1 0.9 1.1 0.8 0.1 -0.5 -0.6 0.2
5.4 6.5 6.5 5.9 5.5 6.1 5.6 6.5 6.5 3.4 3.0 2.0 2.3 1.4 1.9 1.7 1.9 2.5 2.1 1.8 0.5 -0.6 -0.3 -0.7 -1.1 -0.9 -1.4 -1.4 -1.1 -1.0 -0.1 -0.3 -0.9 -0.5 0.6 0.8 0.7 0.5 -0.1 -0.2 -0.1 0.8 2.0 2.3 2.4 1.8 1.6 0.1 0.9
6.5 6.5 6.5 6.5 5.7 5.5 5.6 6.5 6.3 2.3 3.3 3.0 2.5 1.4 1.9 2.0 1.7 1.1 1.1 1.6 -0.6 -0.5 -0.9 -0.3 2.0 -1.0 -1.6 -1.4 -0.9 -0.6 -0.6 -0.6 -0.7 -0.0 0.9 1.5 1.6 1.9 1.8 1.5 1.5 2.2 2.6 2.5 2.0 1.4 1.4 1.2 0.7
6.5 6.5 6.5 6.5 5.7 6.5 6.5 6.5 6.0 2.2 4.3 4.1 2.9 2.3 2.5 1.7 1.3 1.3 1.3 1.2 0.3 -0.4 -0.9 -0.1 -0.3 -0.9 -1.0 -1.2 -0.8 -0.8 -0.7 -0.7 -0.1 0.4 1.1 2.1 2.6 3.1 2.9 2.6 2.9 3.4 3.3 3.4 3.4 3.9 3.4 3.2 3.0
6.5 6.5 6.5 6.5 6.5 6.5 6.5 6.5 6.5 4.1 5.0 5.4 3.4 2.7 2.6 2.7 3.1 2.5 1.7 0.9 1.0 0.0 -0.5 -0.2 -0.4 -0.6 -1.0 -1.6 -1.7 -1.9 -1.7 -1.1 -0.1 0.4 1.2 2.4 3.1 3.7 3.4 3.1 3.2 3.8 3.5 4.0 4.2 4.8 4.8 4.8 4.6
6.5 6.5 6.5 6.5 6.5 6.5 6.5 6.5 6.5 5.2 4.9 5.5 3.9 3.7 2.5 2.7 2.6 2.0 1.4 0.8 0.6 0.3 -0.3 -0.4 -0.4 -0.8 -1.3 -1.5 -1.7 -1.5 -1.1 -1.3 -0.8 0.1 1.7 2.7 3.5 4.2 3.8 2.9 3.3 4.5 4.6 4.7 4.8 4.8 5.3 4.8 4.7
6.5 6.5 6.5 6.5 6.5 6.5 6.5 6.5 6.5 6.3 5.7 5.3 4.8 4.6 3.0 3.0 2.1 1.4 2.2 1.4 1.6 1.1 0.9 -0.4 0.2 -0.5 -0.6 -1.1 -1.6 -1.5 -1.6 -1.1 -0.2 0.2 1.2 2.6 3.5 4.2 4.3 4.0 3.8 4.6 4.2 5.0 4.9 5.1 4.6 4.4 4.6
6.5 6.5 6.5 6.5 6.5 6.5 6.5 6.5 6.5 6.4 5.7 5.2 5.3 4.8 3.8 2.6 2.3 1.3 2.0 1.6 1.5 1.6 0.9 0.7 0.2 0.1 -0.5 -0.4 -1.2 -1.6 -1.4 -1.0 -0.3 -0.2 0.4 2.0 3.8 4.4 4.9 5.1 4.8 4.4 4.1 4.3 4.5 4.5 4.9 4.7 4.2
6.5 6.5 6.5 6.5 6.5 6.5 6.5 6.5 6.5 6.5 6.5 6.5 6.0 5.8 4.9 4.4 4.2 2.6 1.2 1.6 1.4 2.0 1.0 0.7 0.7 0.5 -0.1 -0.6 -0.4 -0.2 -0.6 -0.1 -0.4 -0.1 0.6 2.0 3.9 4.7 5.5 5.9 5.4 4.8 4.0 4.4 4.4 5.9 4.9 4.3 4.7
6.5 6.5 6.5 6.5 6.5 6.5 6.5 6.5 6.5 6.5 6.5 6.5 6.1 4.4 2.6 4.3 5.1 2.7 1.5 0.7 0.6 1.4 0.7 0.8 0.5 0.6 0.6 0.2 -0.1 -0.6 -0.5 -0.4 -0.1 0.1 1.3 1.9 3.2 4.6 5.6 5.9 5.3 4.3 4.0 4.4 4.3 4.8 5.0 4.2 4.2
6.5 6.5 6.5 6.5 6.5 6.5 6.5 6.5 6.5 6.5 6.5 6.5 6.0 2.6 1.6 1.4 2.7 3.5 2.0 1.2 0.7 0.7 0.9 0.2 0.6 1.1 0.5 0.7 -0.1 -0.2 0.2 0.3 -0.0 0.6 1.1 1.9 2.2 2.7 4.6 5.6 4.9 4.5 4.1 4.4 4.8 4.9 4.7 4.5 4.1
6.5 6.5 6.5 6.5 6.5 6.5 6.5 6.5 6.5 6.5 6.5 6.5 6.5 3.5 -0.9 -0.2 2.0 2.5 1.4 1.0 0.4 0.1 0.6 1.0 0.8 1.0 1.1 1.1 0.9 0.3 0.5 0.9 0.9 1.2 1.5 2.0 2.5 3.0 3.7 4.1 4.2 3.9 4.6 4.9 4.8 4.5 4.5 4.5 4.4
6.5 6.5 6.5 6.5 6.5 6.5 6.5 6.5 6.5 6.5 6.0 5.8 4.5 1.2 0.3 -0.8 0.4 -0.5 -0.3 -0.2 -0.6 0.2 0.8 1.5 0.9 1.7 1.3 1.5 1.2 0.8 1.3 0.9 0.7 1.5 1.3 2.0 2.6 3.2 3.8 3.7 4.3 4.5 5.1 4.9 4.6 4.0 4.0 3.8 3.7
6.5 6.5 6.5 6.5 6.5 6.5 6.5 6.5 6.5 6.5 6.5 6.1 4.4 2.4 -0.4 -2.0 -0.9 -1.8 -1.0 -0.7 -0.5 -0.1 0.7 1.2 0.9 1.8 1.4 1.5 1.8 1.3 1.8 1.7 1.3 1.8 2.0 2.2 2.9 4.0 3.8 4.3 4.3 4.3 4.5 4.4 4.3 3.8 4.1 4.1 3.6
6.5 6.5 6.5 6.5 6.5 6.5 6.5 6.5 6.5 6.5 6.5 6.5 6.5 4.6 -0.1 -1.8 -0.6 -1.1 -1.7 -1.2 -0.9 -0.2 0.6 1.2 1.2 1.2 1.0 1.4 2.1 2.3 2.1 2.0 2.2 2.2 2.4 2.7 3.2 3.5 4.1 4.2 4.3 4.3 4.3 4.3 4.2 4.0 3.9 3.6 3.9
6.5 6.5 6.5 6.5 6.5 6.5 6.5 6.5 6.5 6.5 6.5 6.5 6.5 3.4 0.8 -0.9 -1.3 -1.9 -1.8 -1.4 -1.1 -0.4 0.3 0.7 1.0 1.6 1.4 1.9 2.2 2.2 2.3 2.6 2.4 2.5 2.8 3.0 3.6 3.8 4.0 4.5 4.5 4.4 4.3 4.3 4.2 4.0 4.0 3.8 4.3
6.5 6.5 6.5 6.5 6.5 6.5 6.5 6.5 6.5 6.5 6.5 6.2 5.8 1.9 -0.1 -0.1 -1.5 -2.0 -2.0 -2.3 -1.5 -0.6 -0.5 0.3 1.0 1.4 1.7 2.0 2.5 2.6 2.4 2.7 2.6 2.6 2.8 3.1 3.7 4.0 4.1 4.4 4.5 4.5 4.7 4.6 4.2 4.2 4.9 4.9 4.8
Wind_Speed
12 11 1 4 4 5 1 1 1 1 4 4 4 10 9 3 2 4 1 11 11 7 11 7 9 13 12 12 13 13 13 14 14 13 13 13 13 12 12 11 10 9 8 7 6 6 3 3 3
9 2 3 2 4 4 3 2 3 3 9 10 10 5 6 3 3 4 4 6 11 12 9 7 11 12 13 13 13 13 13 13 14 14 14 14 15 15 14 13 12 11 10 9 7 5 4 2 2
5 1 3 4 3 4 4 3 5 7 12 2 5 5 3 3 2 3 5 7 11 9 9 11 13 13 14 16 14 13 14 14 14 14 14 15 15 16 16 15 14 14 12 11 10 7 4 2 3
3 4 4 4 3 2 6 6 4 7 6 6 5 7 2 2 1 6 8 9 7 8 13 13 14 13 16 17 15 14 15 15 14 12 12 14 14 14 17 17 16 16 14 13 12 10 7 3 2
4 3 4 3 1 2 3 6 6 4 3 4 3 6 4 2 6 9 9 8 10 7 12 13 15 15 16 15 15 14 14 17 18 20 13 15 16 13 15 16 14 15 16 15 16 13 11 9 5
4 3 4 3 2 1 2 5 6 4 3 5 6 6 5 2 5 6 8 7 10 9 10 13 15 15 15 14 13 13 17 17 18 20 19 18 17 18 18 18 17 16 13 14 14 15 14 12 10
5 4 4 3 5 3 5 4 5 6 6 4 10 6 3 3 6 7 8 7 7 10 11 12 14 15 13 11 10 16 16 18 18 18 18 19 18 19 19 19 18 18 18 21 19 12 14 15 11
4 4 4 3 7 6 5 5 5 6 3 4 5 7 5 6 8 7 7 8 7 6 8 8 8 9 12 13 18 16 16 17 18 18 18 18 19 19 19 20 19 18 18 20 21 23 13 18 17
3 4 2 4 6 4 4 5 1 3 6 2 2 6 6 10 9 7 5 5 6 6 5 8 8 8 12 12 15 16 17 18 18 17 18 19 20 20 20 19 20 20 20 19 20 21 20 21 21
4 4 7 4 4 6 6 6 9 5 5 1 1 2 6 11 8 10 8 7 6 6 4 5 8 11 13 10 16 17 16 19 19 18 18 17 19 18 17 19 22 21 22 21 21 21 20 19 17
4 5 5 3 1 5 5 4 4 9 5 7 11 10 8 7 9 10 9 9 9 7 4 7 7 11 12 11 13 14 14 15 15 15 14 14 14 16 17 18 19 19 18 17 18 18 17 17 17
3 5 4 3 1 4 5 4 5 8 8 10 14 16 10 10 10 11 10 9 9 7 8 6 7 9 10 12 11 11 11 11 12 11 12 12 11 11 11 12 13 14 16 14 15 14 15 15 15
4 4 4 3 4 3 2 7 7 8 5 6 11 11 12 10 10 8 11 9 9 8 8 7 7 6 8 8 9 9 9 10 10 9 10 11 9 6 9 9 11 12 15 13 12 12 12 11 14
4 5 4 5 4 3 4 5 4 6 4 8 15 15 11 13 13 8 9 13 10 9 9 8 7 8 10 6 7 7 10 10 10 9 9 10 8 7 8 7 8 10 12 14 12 8 7 7 10
3 3 2 5 5 5 5 7 11 5 7 11 10 10 10 12 10 14 16 13 13 9 9 9 8 10 8 8 8 8 9 10 9 8 8 8 7 7 7 6 6 6 9 11 12 11 12 6 10
4 2 1 5 8 5 8 11 10 10 13 12 12 11 10 12 12 10 10 12 9 9 10 8 8 8 7 7 8 8 9 9 8 8 7 6 5 5 5 3 3 7 8 7 5 3 4 4 4
3 4 7 7 12 4 7 9 7 10 15 15 15 14 14 11 10 9 11 10 11 11 10 9 8 9 8 7 8 8 8 8 7 7 5 4 3 2 1 1 4 4 4 3 2 2 2 3 4
7 6 5 6 6 6 8 16 9 5 15 20 17 17 15 15 20 16 11 9 10 9 9 9 7 8 8 5 5 4 4 4 5 5 5 3 2 2 1 2 4 3 1 2 1 1 2 1 2
4 4 5 4 6 9 15 20 19 12 9 13 13 15 17 21 19 10 10 9 9 9 9 9 9 8 6 3 3 2 3 2 1 3 5 5 4 4 3 3 3 2 1 2 2 1 1 2 2
8 8 9 8 8 10 9 20 18 7 10 16 21 17 20 17 13 13 14 13 14 13 12 10 10 9 7 4 3 3 3 2 2 2 4 6 6 6 4 3 3 3 2 2 3 1 1 2 1
11 14 6 9 3 4 4 11 8 9 16 19 20 18 19 22 22 18 18 18 15 16 15 13 12 12 8 7 4 3 3 2 0 1 2 4 3 5 5 4 4 3 2 2 3 3 3 2 2
16 8 14 10 4 7 6 14 8 7 15 10 20 20 22 22 21 18 20 18 18 17 14 13 12 12 9 9 7 6 5 4 3 3 3 2 3 4 4 3 3 3 1 2 2 2 2 2 4
9 8 9 6 5 1 5 4 3 4 7 15 13 21 23 22 20 22 23 23 21 16 15 13 12 12 9 10 9 6 5 4 3 2 3 3 3 4 4 3 3 3 2 3 4 3 3 2 2
4 3 6 4 3 5 10 8 24 9 15 14 15 11 16 17 20 19 18 17 17 14 13 11 13 13 11 11 9 10 9 7 4 4 3 3 2 3 4 4 3 5 4 4 4 4 5 5 4
4 6 3 4 2 11 11 8 22 8 8 11 15 16 11 14 15 15 18 18 17 18 16 13 15 14 13 13 11 10 9 8 8 6 5 4 3 3 5 3 4 3 6 7 6 5 6 6 4
9 9 7 8 7 12 6 10 13 12 20 20 15 12 6 9 14 17 21 20 19 19 17 17 17 15 14 13 12 9 9 5 5 6 5 4 4 5 4 5 6 8 9 7 7 4 5 6 6
9 9 9 7 1 2 6 9 11 8 10 9 11 9 11 11 14 18 16 17 18 18 20 20 17 15 14 14 11 9 8 7 6 7 5 5 5 4 6 6 6 6 6 6 6 5 6 6 6
10 6 2 0 7 11 10 6 12 5 15 14 10 12 12 9 9 11 14 17 16 16 16 17 17 18 15 14 11 9 9 7 7 6 7 6 6 6 6 6 6 6 6 7 7 5 7 7 6
2 8 5 5 7 13 16 12 9 17 16 12 12 13 14 12 14 13 13 14 15 14 15 16 16 16 14 14 11 9 8 7 7 6 6 6 5 6 6 6 6 6 7 7 6 7 8 8 9
19 17 21 13 16 5 15 23 2 7 8 9 15 10 7 8 8 9 10 11 13 15 15 16 15 15 15 13 12 11 8 7 7 7 7 6 6 5 6 6 6 6 7 7 7 8 9 9 9
Wind_Direction
320 310 81 47 60 63 105 301 163 116 58 330 87 98 115 43 81 180 186 129 140 120 106 110 112 104 105 107 99 96 92 92 86 82 80 75 70 65 61 61 60 57 55 58 46 31 30 118 100
315 329 54 86 86 82 284 305 121 65 135 135 93 82 48 54 52 92 88 84 97 111 110 121 114 104 109 105 101 96 87 81 81 79 77 75 68 63 56 53 46 43 41 36 32 34 47 111 146
314 105 79 91 98 142 181 224 164 120 161 115 98 56 83 127 98 98 123 113 108 108 113 129 116 113 116 110 98 92 90 84 75 72 72 70 66 62 51 52 47 39 33 32 28 17 21 123 173
14 13 34 84 131 195 179 191 202 144 128 65 107 76 45 260 71 132 139 122 111 107 112 116 114 115 105 100 96 89 83 73 61 55 61 64 57 59 48 48 47 41 36 34 27 23 14 3 215
31 57 67 93 201 170 191 181 153 160 85 125 144 156 130 12 100 113 137 137 124 114 107 109 112 111 106 102 93 84 74 64 55 52 60 56 49 41 48 34 38 37 37 33 29 26 19 8 354
44 88 68 160 215 309 284 179 145 146 131 169 85 113 183 194 117 126 134 141 129 123 120 117 118 113 105 100 92 80 71 64 56 51 51 50 46 45 42 39 40 32 26 23 26 23 21 12 4
106 86 178 166 178 172 216 190 155 154 151 222 146 123 243 221 169 144 117 129 116 117 115 119 122 116 110 102 79 75 66 59 54 50 51 46 43 40 41 33 33 34 31 32 24 22 25 21 12
102 94 163 214 183 218 212 158 120 137 173 109 143 169 191 216 168 133 108 95 99 110 118 120 101 106 96 78 76 75 68 63 56 52 51 47 42 40 36 35 31 32 27 29 29 26 20 16 5
76 70 199 197 151 229 184 152 55 61 111 62 303 159 200 160 128 112 112 103 96 94 118 118 106 110 99 84 74 76 68 66 58 51 46 42 38 35 32 30 33 35 32 28 26 25 20 17 10
94 125 213 198 198 205 198 167 151 126 142 44 36 44 137 132 155 149 155 146 138 136 132 125 124 112 107 92 82 78 74 70 66 58 49 44 39 31 31 31 32 30 28 25 22 20 19 15 6
176 191 214 223 200 153 181 185 183 133 230 194 178 171 179 164 167 171 176 169 166 158 146 152 137 123 115 106 96 85 80 75 71 67 57 53 44 36 32 32 32 32 24 20 16 14 11 8 7
181 229 191 208 152 129 184 169 206 182 214 176 178 177 175 189 179 184 182 176 165 160 161 155 139 122 113 114 106 104 94 89 81 78 67 61 48 35 26 29 29 31 27 21 17 12 7 8 8
194 235 213 180 192 226 164 211 205 221 240 200 167 171 184 189 199 188 181 174 167 164 166 168 144 130 131 121 119 113 110 100 102 95 75 71 60 42 31 28 31 28 25 24 16 14 9 6 1
212 211 189 206 230 247 197 242 176 229 179 158 170 187 192 188 189 175 176 183 180 169 172 163 155 152 148 142 137 136 125 118 104 100 80 71 66 51 40 30 25 26 24 25 24 16 9 359 2
153 144 265 229 214 241 146 271 229 190 179 168 191 199 202 208 192 191 188 183 183 184 167 166 156 159 156 151 151 147 136 120 105 107 81 74 68 57 45 29 21 12 20 25 21 13 11 10 0
157 77 221 264 173 244 134 260 247 187 169 196 203 209 211 219 211 201 184 185 181 169 173 166 156 161 160 156 154 150 133 127 123 118 101 85 87 70 50 22 347 360 13 18 12 17 360 1 359
334 227 216 301 196 147 171 257 256 172 189 204 210 212 215 224 232 217 202 186 178 177 166 171 156 163 162 158 151 147 135 136 137 132 133 113 115 114 90 294 316 344 360 14 354 347 19 348 344
208 222 238 223 218 195 211 250 257 207 197 216 212 215 215 218 222 212 204 178 172 173 169 162 164 163 158 146 134 115 116 132 157 157 173 168 185 211 267 303 316 354 359 341 340 308 311 270 283
196 216 231 246 218 182 222 236 246 235 209 232 228 218 216 219 220 203 195 174 170 174 169 173 165 173 151 150 141 126 169 174 204 203 206 214 218 239 277 304 316 305 272 267 264 266 290 303 291
241 260 266 270 252 181 238 243 243 208 221 219 228 221 221 222 213 201 196 186 182 178 179 175 177 170 177 158 164 150 156 190 188 207 221 234 235 244 274 251 272 254 270 277 292 241 275 262 285
235 234 240 235 286 250 313 268 250 243 229 232 238 231 224 217 212 203 198 195 183 183 181 177 175 175 178 169 131 98 76 58 92 215 245 244 244 258 284 275 239 267 203 267 282 280 257 266 294
241 211 231 245 182 248 159 278 228 239 247 220 235 235 229 220 217 205 200 197 191 191 180 176 174 176 177 164 152 154 168 169 209 187 207 248 253 274 281 243 262 269 279 294 275 271 270 180 289
237 187 207 216 217 5 207 272 203 249 267 265 240 233 228 222 209 200 198 196 192 181 182 180 173 176 172 171 166 164 166 189 190 191 211 234 268 266 242 261 309 299 290 272 275 293 280 228 225
139 105 33 43 95 256 211 182 272 218 224 245 259 262 227 207 204 203 197 186 188 180 178 173 176 183 175 172 173 171 176 189 186 213 209 229 248 252 246 274 263 280 260 261 255 267 262 265 241
157 109 271 282 190 243 168 202 241 251 239 221 248 268 232 199 194 185 179 186 183 181 179 179 179 184 179 178 178 177 184 185 196 205 204 201 217 229 249 232 254 254 256 262 252 266 270 264 243
204 178 185 211 221 257 175 227 244 219 243 255 233 244 227 201 191 187 187 186 184 183 180 182 183 184 180 179 182 180 182 187 197 204 202 211 207 220 232 238 250 257 262 260 267 257 259 251 247
208 214 222 283 160 320 218 274 281 256 261 262 242 240 229 205 194 191 184 184 181 184 186 184 180 184 180 181 180 181 185 186 199 211 201 205 214 229 236 236 255 266 266 259 263 256 260 254 255
201 168 186 175 249 251 259 263 243 308 241 246 254 233 238 208 200 187 181 181 185 186 182 182 183 183 180 177 181 185 186 189 195 189 196 206 224 226 241 260 266 273 269 264 263 265 261 255 254
197 224 218 179 191 242 258 254 197 228 232 235 235 233 232 208 202 187 184 184 178 173 177 182 183 182 179 180 182 177 185 190 184 188 201 207 214 232 246 255 259 260 262 265 265 262 267 255 261
232 229 221 231 241 243 246 257 177 221 263 254 252 242 226 206 201 183 176 163 172 178 177 184 182 183 183 182 180 186 181 181 184 195 205 205 223 237 245 253 259 264 266 264 258 263 278 274 269